This demonstration page uses our WeatherBlox Daily Observations layout. Learn more.

Left ArrowRight Arrow

41.86663, -103.66717

Hourly Observations for June 19, 2021

Temp ( °F °C ) Dew Point ( °F °C ) Humidity (%) Winds ( mph kmh ) Pressure ( in mb ) Visibility ( mi km ) Precip ( " mm )
12:53 am 00:53 Mostly Cloudy 69 20.6 54 12.2 59 59 SE 6 9 29.83 1010 10 16 N/A
1:53 am 01:53 Clear 65 18.3 54 12.2 68 68 ENE 6 9 29.81 1010 10 16 N/A
2:53 am 02:53 Clear 64 17.8 53 11.7 68 68 ESE 7 11 29.82 1010 10 16 N/A
3:53 am 03:53 Clear 63 17.2 53 11.7 70 70 E 6 9 29.82 1010 10 16 N/A
4:53 am 04:53 Clear 64 17.8 54 12.2 70 70 E 8 13 29.81 1009 10 16 N/A
5:53 am 05:53 Sunny 64 17.8 56 13.3 75 75 ESE 6 9 29.82 1010 10 16 N/A
6:53 am 06:53 Sunny 67 19.4 59 15 76 76 ESE 10 17 29.80 1009 8 13 N/A
7:53 am 07:53 Sunny 68 20 59 15 73 73 SE 7 11 29.80 1009 8 13 N/A
8:53 am 08:53 Sunny 73 22.8 61 16.1 66 66 SE 10 17 29.79 1009 10 16 N/A
9:53 am 09:53 Sunny 78 25.6 62 16.7 58 58 SE 10 17 29.77 1008 10 16 N/A
10:53 am 10:53 Sunny 86 30 59 15 40 40 SSE 20 31 29.73 1007 10 16 N/A
11:53 am 11:53 Sunny 88 31.1 58 14.4 36 36 S 13 20 29.71 1006 10 16 N/A
12:53 pm 12:53 Sunny 89 31.7 56 13.3 33 33 S 6 9 29.70 1006 10 16 N/A
1:53 pm 13:53 Sunny 94 34.4 48 8.9 21 21 NNW 15 24 29.66 1004 10 16 N/A
2:20 pm 14:20 Sunny with Nearby Thunderstorms 91 32.8 48 8.9 23 23 NW 14 22 29.48 998 10 16 N/A
2:34 pm 14:34 Sunny 91 32.8 49 9.4 24 24 WNW 10 17 29.47 998 10 16 N/A
2:53 pm 14:53 Sunny 95 35 50 10 22 22 WNW 16 26 29.64 1004 10 16 N/A
3:53 pm 15:53 Sunny 91 32.8 42 5.6 18 18 WNW 12 19 29.65 1004 10 16 N/A
4:53 pm 16:53 Sunny 94 34.4 37 2.8 14 14 VRB 5 7 29.60 1002 10 16 N/A
5:53 pm 17:53 Sunny 80 26.7 55 12.8 42 42 SE 25 41 29.63 1003 10 16 N/A
6:53 pm 18:53 Sunny 79 26.1 56 13.3 45 45 SE 23 37 29.61 1003 10 16 N/A
7:53 pm 19:53 Sunny 72 22.2 58 14.4 61 61 SE 17 28 29.62 1003 10 16 N/A
8:53 pm 20:53 Clear 70 21.1 56 13.3 61 61 SE 15 24 29.61 1003 10 16 N/A
9:53 pm 21:53 Clear 70 21.1 55 12.8 59 59 E 7 11 29.65 1004 10 16 N/A
10:53 pm 22:53 Clear 67 19.4 56 13.3 68 68 ESE 9 15 29.60 1002 10 16 N/A
11:53 pm 23:53 Clear 65 18.3 56 13.3 73 73 ESE 10 17 29.60 1003 10 16 N/A

Powered by AerisWeather